Probability
0 0 0 0 0 0 0 0 0 0 3 6 10 16 35 32 19 26 35 61 87 100 100 100 100 100 100 100 100 100 100 100 100 100 100 100 100 100 100 100 100 100 100 100 100 100 100 100 100
0 0 0 0 0 0 0 0 0 0 10 10 13 35 52 58 61 65 74 84 97 100 100 100 100 100 100 100 100 100 100 100 100 100 100 100 100 100 100 100 100 100 100 100 100 100 100 100 100
0 0 0 0 0 0 0 0 0 3 10 10 19 29 48 65 74 71 77 87 97 100 100 100 100 100 100 100 100 100 100 100 100 100 100 100 100 100 100 100 100 100 100 100 100 100 100 100 100
0 0 0 0 0 0 0 0 0 6 6 13 35 55 48 55 71 81 77 90 97 100 100 100 100 100 100 100 100 100 100 100 100 100 100 100 100 100 100 100 100 100 100 100 100 100 100 100 100
0 0 0 0 0 0 0 3 3 3 10 32 45 55 55 61 74 84 84 94 97 94 97 100 100 100 100 100 100 100 100 100 100 100 100 100 100 100 100 100 100 100 100 100 100 100 100 100 100
0 0 0 0 0 0 0 3 6 10 16 29 42 48 48 55 68 77 81 84 90 90 94 97 97 97 97 100 100 100 100 100 100 100 100 100 100 100 100 100 100 100 100 100 100 100 100 100 97
0 0 0 0 0 0 3 3 6 16 19 26 42 48 52 52 55 65 71 81 87 90 90 90 90 97 97 97 97 100 100 100 100 100 100 100 100 100 100 100 100 100 100 100 100 100 97 94 97
0 0 0 0 0 0 0 3 13 16 26 29 45 52 52 39 52 55 68 77 87 87 87 87 87 87 87 97 97 97 100 100 100 100 100 100 100 100 100 100 100 100 97 100 100 100 97 94 97
0 0 0 0 0 0 0 10 23 23 23 16 35 52 48 52 42 48 55 61 65 71 71 77 84 87 84 87 90 90 94 97 97 97 100 94 81 84 84 87 97 97 97 94 97 94 97 100 97
0 0 0 0 0 3 6 10 19 19 23 19 35 42 42 35 35 45 52 55 58 61 58 68 71 74 81 81 77 77 77 74 71 68 68 71 65 68 71 81 87 90 87 84 84 94 90 87 65
0 0 0 0 3 10 10 13 19 16 23 19 35 35 29 29 35 32 39 45 45 48 52 65 65 68 68 68 71 65 65 61 61 61 58 61 52 58 55 55 58 55 58 58 65 71 68 61 39
0 0 0 0 6 13 16 26 16 16 23 23 23 26 23 32 26 23 26 23 35 42 48 45 52 55 65 61 65 61 55 55 52 58 58 55 42 32 29 32 39 48 48 42 39 39 42 29 26
0 0 0 6 6 13 16 19 16 19 26 23 19 16 26 26 19 26 23 23 26 35 42 39 39 48 58 48 52 52 52 42 39 39 48 45 39 23 23 16 26 26 23 23 23 19 10 13 13
0 0 3 6 6 16 10 16 19 19 23 13 19 23 13 19 19 23 29 29 32 35 35 42 45 42 39 42 48 48 52 42 39 45 39 35 35 26 23 23 23 23 23 16 13 10 6 3 6
0 0 0 0 6 6 6 16 29 19 23 19 26 23 16 23 19 23 29 29 32 29 29 32 45 35 32 32 42 42 42 39 39 39 39 35 29 23 19 23 10 6 6 3 3 3 3 3 0
0 0 0 0 3 3 3 13 23 26 26 23 26 19 26 23 23 23 19 32 35 29 26 29 35 29 32 32 42 35 39 39 39 35 32 29 23 23 19 13 6 3 3 3 3 0 0 0 0
0 0 0 0 0 0 3 10 23 23 23 26 26 26 26 23 26 23 32 19 19 23 23 26 29 26 32 32 35 32 35 32 32 19 16 16 19 16 16 10 3 3 3 3 3 0 0 0 0
0 0 0 0 3 3 0 10 32 26 19 19 23 19 16 26 23 19 23 23 13 13 16 23 19 23 26 26 32 26 26 23 19 16 19 13 13 13 13 6 6 3 0 0 3 0 0 0 0
0 0 0 0 3 3 10 16 29 16 19 16 19 19 16 26 19 13 13 13 16 23 23 23 19 19 19 26 26 19 16 10 10 10 10 10 10 10 10 6 6 3 3 3 6 3 0 0 0
0 0 0 0 3 6 13 16 13 6 10 16 16 16 23 19 16 13 10 10 10 13 16 16 16 16 19 19 23 13 13 10 10 10 10 10 10 10 10 6 6 3 3 3 3 0 0 0 0
0 0 0 0 3 6 6 6 6 3 6 13 16 13 19 19 16 10 6 10 10 6 10 13 10 10 10 16 19 13 6 6 6 6 6 6 6 6 3 3 3 3 3 3 3 3 0 0 0
0 0 0 0 0 0 0 0 3 6 6 16 13 13 16 16 6 10 6 6 3 6 6 6 6 10 10 10 10 13 6 6 6 6 6 6 3 3 3 3 3 3 3 3 3 3 3 0 0
0 0 0 0 0 0 0 0 0 3 16 13 10 16 13 13 10 6 6 6 6 6 6 6 6 6 6 6 6 6 6 6 6 3 0 0 0 0 0 0 3 3 3 3 3 3 3 3 0
0 0 0 0 0 0 0 0 0 3 6 13 10 16 13 10 6 6 3 0 3 3 3 3 3 3 6 6 6 6 6 3 3 0 0 0 0 0 0 0 0 0 3 3 3 3 3 3 3
0 0 0 0 0 0 0 0 0 0 0 3 3 3 6 6 3 3 3 3 3 3 3 3 3 3 0 0 0 0 3 0 0 0 0 0 0 0 0 0 0 0 0 0 3 3 3 3 3
0 0 0 0 0 0 0 0 0 3 3 3 3 6 6 3 3 3 3 3 3 3 3 3 3 0 0 0 0 0 0 0 0 0 0 0 0 0 0 0 0 0 0 0 0 0 3 3 3
0 0 0 0 0 0 0 0 0 3 6 6 6 6 3 3 0 0 0 0 0 0 0 0 0 0 0 0 0 0 0 0 0 0 0 0 0 0 0 0 0 0 0 0 0 0 0 0 0
0 0 0 0 0 0 0 0 0 3 6 6 6 3 3 0 0 0 0 0 0 0 0 0 0 0 0 0 0 0 0 0 0 0 0 0 0 0 0 0 0 0 0 0 0 0 0 0 0
0 0 0 0 0 0 0 0 0 3 6 6 3 3 0 0 0 0 0 0 0 0 0 0 0 0 0 0 0 0 0 0 0 0 0 0 0 0 0 0 0 0 0 0 0 0 0 0 0
0 0 0 0 0 0 0 0 0 0 3 6 3 0 0 0 0 0 0 0 0 0 0 0 0 0 0 0 0 0 0 0 0 0 0 0 0 0 0 0 0 0 0 0 0 0 0 0 0
Height
5893 5895 5896 5898 5900 5901 5900 5900 5900 5900 5900 5900 5901 5900 5902 5903 5904 5907 5904 5903 5903 5903 5903 5904 5905 5905 5906 5906 5907 5907 5908 5908 5908 5908 5908 5909 5909 5909 5908 5908 5908 5908 5907 5907 5906 5906 5905 5905 5904
5891 5892 5894 5896 5897 5897 5897 5897 5896 5897 5898 5898 5899 5899 5900 5901 5901 5902 5901 5901 5901 5902 5902 5903 5904 5904 5904 5905 5906 5906 5906 5907 5907 5907 5907 5907 5907 5907 5907 5907 5907 5907 5906 5906 5905 5905 5904 5904 5903
5888 5889 5892 5894 5894 5895 5895 5894 5894 5895 5895 5897 5897 5897 5899 5899 5899 5899 5899 5899 5899 5900 5901 5901 5902 5902 5903 5903 5904 5904 5905 5905 5905 5905 5905 5906 5906 5906 5906 5906 5905 5905 5905 5905 5904 5903 5903 5903 5902
5885 5887 5889 5892 5892 5892 5892 5892 5891 5892 5893 5893 5894 5895 5896 5897 5897 5897 5897 5897 5897 5897 5898 5898 5899 5900 5900 5901 5901 5902 5902 5903 5903 5903 5904 5904 5904 5904 5904 5904 5904 5904 5903 5903 5902 5902 5901 5901 5901
5882 5884 5886 5888 5888 5889 5889 5888 5888 5889 5889 5890 5891 5892 5893 5894 5894 5893 5893 5893 5894 5894 5895 5895 5896 5897 5898 5898 5899 5899 5900 5900 5901 5901 5901 5901 5902 5902 5902 5902 5902 5901 5901 5901 5900 5900 5900 5899 5899
5879 5881 5884 5884 5885 5885 5885 5885 5885 5886 5887 5888 5889 5889 5889 5890 5890 5890 5890 5889 5889 5891 5892 5893 5894 5894 5895 5896 5896 5897 5897 5898 5898 5898 5898 5899 5899 5899 5899 5899 5899 5899 5899 5898 5898 5897 5897 5897 5896
5877 5879 5881 5882 5882 5882 5882 5882 5883 5883 5884 5885 5886 5885 5885 5886 5887 5886 5886 5885 5886 5887 5888 5889 5890 5891 5892 5893 5893 5894 5894 5895 5895 5895 5895 5895 5895 5896 5896 5896 5895 5895 5895 5895 5895 5894 5894 5894 5893
5873 5876 5878 5879 5878 5879 5880 5880 5881 5881 5882 5883 5883 5883 5882 5883 5883 5883 5882 5880 5881 5883 5884 5885 5886 5887 5888 5889 5890 5890 5891 5891 5892 5892 5892 5892 5892 5892 5892 5892 5892 5892 5892 5891 5891 5891 5891 5890 5890
5871 5874 5874 5875 5875 5876 5876 5877 5879 5878 5879 5879 5879 5879 5879 5879 5879 5880 5878 5876 5877 5879 5880 5880 5882 5883 5884 5885 5886 5886 5887 5887 5888 5888 5888 5889 5889 5888 5888 5888 5888 5888 5887 5887 5887 5887 5887 5887 5887
5867 5870 5871 5871 5871 5872 5872 5874 5875 5875 5876 5875 5876 5876 5876 5876 5877 5875 5874 5872 5873 5874 5875 5876 5877 5879 5880 5881 5882 5882 5883 5883 5884 5885 5885 5885 5885 5884 5884 5884 5883 5883 5883 5883 5883 5883 5883 5883 5883
5864 5866 5866 5867 5867 5868 5869 5871 5872 5872 5872 5873 5873 5873 5873 5873 5872 5871 5869 5868 5869 5870 5872 5873 5874 5875 5876 5877 5877 5878 5879 5879 5880 5880 5881 5881 5880 5880 5880 5879 5878 5878 5878 5877 5877 5878 5878 5878 5878
5860 5861 5862 5863 5864 5865 5866 5867 5868 5869 5870 5870 5870 5869 5868 5868 5868 5868 5866 5863 5865 5867 5869 5870 5870 5871 5872 5872 5873 5874 5875 5875 5875 5876 5876 5876 5876 5875 5875 5874 5873 5873 5873 5873 5872 5872 5873 5873 5874
5856 5857 5858 5859 5860 5861 5862 5864 5865 5865 5866 5866 5866 5866 5866 5864 5865 5865 5863 5862 5862 5863 5865 5866 5866 5867 5867 5868 5869 5870 5871 5871 5871 5871 5871 5871 5871 5870 5870 5869 5868 5868 5868 5868 5867 5867 5868 5868 5868
5852 5853 5854 5856 5857 5858 5860 5861 5862 5861 5863 5863 5862 5862 5861 5861 5860 5861 5860 5859 5861 5861 5861 5862 5862 5862 5863 5864 5864 5865 5866 5866 5866 5866 5866 5865 5865 5864 5864 5863 5863 5863 5863 5862 5862 5862 5863 5862 5862
5847 5849 5851 5853 5854 5855 5857 5858 5858 5858 5859 5859 5859 5859 5858 5856 5856 5856 5856 5856 5857 5858 5857 5858 5858 5859 5859 5859 5860 5860 5860 5861 5861 5861 5860 5860 5859 5859 5858 5858 5858 5857 5857 5857 5857 5857 5857 5857 5857
5844 5846 5848 5850 5851 5852 5855 5854 5854 5854 5855 5855 5855 5855 5854 5853 5853 5852 5853 5853 5854 5853 5853 5854 5855 5855 5855 5855 5855 5856 5856 5856 5856 5855 5855 5854 5853 5853 5853 5853 5852 5852 5852 5852 5852 5852 5851 5851 5852
5841 5843 5845 5847 5848 5849 5850 5850 5851 5851 5852 5852 5851 5851 5851 5850 5849 5849 5849 5849 5849 5850 5850 5850 5850 5851 5851 5851 5851 5851 5851 5850 5850 5849 5849 5848 5848 5847 5847 5847 5846 5846 5846 5846 5846 5846 5845 5845 5846
5839 5840 5842 5844 5845 5846 5847 5847 5848 5848 5849 5849 5848 5847 5846 5846 5845 5845 5845 5845 5845 5846 5846 5846 5846 5846 5846 5846 5845 5845 5845 5844 5844 5844 5843 5842 5842 5841 5841 5840 5840 5840 5840 5839 5840 5840 5839 5839 5839
5836 5837 5839 5841 5842 5843 5843 5844 5845 5845 5845 5845 5844 5844 5844 5844 5843 5842 5842 5842 5842 5843 5843 5843 5843 5842 5842 5841 5840 5840 5839 5839 5838 5837 5837 5836 5835 5835 5834 5833 5833 5833 5833 5833 5833 5833 5833 5833 5833
5833 5835 5836 5838 5838 5840 5841 5841 5841 5842 5842 5841 5841 5841 5842 5841 5840 5839 5839 5839 5839 5839 5839 5839 5838 5837 5837 5836 5835 5834 5834 5833 5832 5831 5830 5829 5829 5828 5827 5827 5826 5826 5826 5826 5826 5826 5826 5826 5826
5831 5832 5833 5835 5835 5837 5838 5839 5839 5839 5838 5838 5838 5838 5838 5838 5837 5836 5835 5836 5836 5835 5835 5835 5834 5833 5832 5830 5830 5829 5828 5827 5826 5825 5824 5823 5822 5821 5821 5820 5819 5819 5819 5819 5819 5819 5819 5820 5820
5828 5830 5831 5832 5833 5834 5836 5836 5836 5835 5835 5835 5835 5835 5834 5833 5832 5831 5830 5831 5831 5831 5830 5829 5828 5827 5826 5825 5824 5822 5821 5820 5819 5818 5817 5816 5815 5814 5814 5813 5812 5811 5811 5811 5811 5812 5812 5813 5813
5826 5827 5828 5829 5831 5832 5833 5833 5833 5832 5832 5832 5831 5829 5829 5829 5828 5827 5827 5825 5825 5825 5824 5823 5822 5821 5819 5818 5817 5815 5814 5813 5812 5811 5810 5809 5808 5807 5807 5806 5805 5804 5804 5804 5804 5804 5805 5806 5806
5823 5824 5825 5827 5828 5829 5830 5830 5830 5829 5829 5828 5827 5825 5825 5824 5823 5823 5822 5820 5819 5819 5818 5817 5815 5814 5813 5811 5810 5808 5807 5806 5804 5803 5802 5802 5801 5800 5800 5799 5798 5798 5797 5797 5797 5798 5798 5799 5800
5820 5822 5823 5824 5825 5826 5827 5826 5827 5826 5825 5824 5822 5821 5820 5820 5819 5818 5817 5815 5814 5813 5812 5810 5808 5807 5806 5804 5802 5801 5799 5798 5797 5796 5795 5794 5793 5793 5792 5792 5792 5791 5790 5790 5790 5791 5791 5792 5792
5817 5819 5821 5822 5822 5823 5823 5822 5823 5822 5820 5819 5818 5817 5816 5815 5814 5812 5811 5809 5808 5807 5805 5804 5802 5800 5798 5796 5794 5793 5792 5790 5789 5789 5788 5787 5786 5785 5785 5785 5784 5784 5783 5783 5783 5784 5784 5785 5785
5815 5816 5818 5818 5819 5819 5819 5819 5818 5817 5816 5814 5813 5813 5811 5810 5809 5807 5805 5803 5802 5801 5799 5797 5795 5793 5791 5789 5787 5786 5784 5783 5782 5781 5780 5779 5778 5778 5778 5777 5777 5777 5776 5776 5776 5776 5777 5777 5778
5813 5814 5815 5815 5815 5814 5815 5815 5814 5813 5811 5810 5808 5808 5806 5805 5803 5801 5799 5797 5796 5794 5792 5790 5788 5786 5784 5782 5780 5779 5777 5776 5775 5774 5773 5772 5771 5771 5770 5770 5770 5769 5769 5769 5769 5769 5770 5770 5771
5811 5812 5812 5812 5812 5812 5811 5813 5810 5809 5807 5805 5804 5802 5801 5799 5797 5795 5794 5792 5790 5788 5786 5783 5781 5779 5777 5775 5773 5772 5770 5769 5767 5766 5766 5765 5764 5763 5763 5762 5762 5762 5762 5762 5762 5762 5763 5764 5764
5808 5808 5809 5810 5809 5808 5807 5810 5806 5804 5802 5800 5799 5797 5795 5794 5792 5790 5788 5786 5784 5782 5779 5777 5775 5773 5770 5768 5766 5765 5763 5762 5760 5759 5758 5757 5757 5756 5755 5755 5755 5755 5755 5755 5755 5755 5756 5757 5758
Wind_Speed
15 15 14 12 12 12 13 14 15 15 15 15 16 17 16 17 17 16 15 14 11 9 9 8 9 9 10 10 11 11 11 10 10 10 10 10 10 10 10 10 10 10 10 9 9 9 8 7 6
15 14 13 12 11 13 14 16 17 17 16 16 18 18 19 19 19 19 17 14 12 10 9 10 10 10 11 11 12 12 12 12 11 11 11 11 11 11 11 11 11 11 11 11 10 10 9 8 8
15 14 13 11 12 15 16 17 15 15 16 18 19 20 20 20 20 20 19 17 15 12 11 11 11 11 12 13 13 13 13 13 13 12 12 12 12 12 12 12 12 12 12 12 11 11 10 9 9
14 13 12 12 15 17 18 18 16 14 17 20 20 21 21 21 21 20 18 18 16 13 12 12 12 12 13 13 14 14 14 14 14 14 14 13 13 13 13 14 14 14 14 13 13 12 12 11 10
14 13 12 13 17 18 19 19 17 16 18 20 22 22 22 21 22 22 20 18 17 15 13 13 13 13 13 14 14 15 15 15 15 15 15 15 15 15 14 15 15 15 15 15 14 14 13 13 12
13 12 12 14 18 19 20 18 16 16 19 21 23 24 24 23 22 22 22 18 16 16 15 14 14 14 14 15 15 15 15 16 16 16 16 16 16 16 16 16 16 16 16 16 15 15 15 14 13
12 11 13 16 18 20 19 16 16 18 21 24 26 27 26 24 21 21 22 19 17 17 16 16 15 15 14 15 15 16 16 16 16 16 17 17 18 18 17 17 17 18 18 18 18 17 16 16 15
13 12 15 19 21 20 16 14 17 20 23 25 27 28 27 25 23 23 22 22 19 17 16 16 15 15 15 15 16 16 16 16 17 18 18 18 19 19 19 19 19 19 19 20 20 19 18 18 17
13 14 18 21 22 19 16 15 19 22 25 27 28 29 28 26 22 22 22 22 20 18 16 17 15 15 16 17 17 17 16 17 18 18 18 19 19 20 20 21 21 21 21 21 21 21 20 19 19
14 17 20 22 21 19 17 17 20 23 25 26 26 27 27 26 24 24 24 21 19 17 16 15 15 16 17 17 17 17 17 17 17 19 19 19 20 20 21 21 21 22 22 22 23 22 22 21 21
17 19 21 22 21 20 18 19 20 22 23 23 24 26 26 26 25 25 23 20 18 16 16 15 15 16 17 17 17 16 16 17 18 19 20 21 21 21 21 21 22 21 22 23 23 23 23 23 23
20 21 21 22 22 21 20 21 22 22 23 24 24 25 25 26 25 25 22 19 18 16 16 17 16 16 17 17 16 16 16 17 18 19 20 21 21 22 22 22 22 23 23 23 23 23 22 23 24
21 22 22 22 22 23 23 24 24 24 24 24 24 24 25 23 23 22 20 16 15 15 15 15 15 16 17 17 16 16 16 17 18 19 20 21 21 22 23 23 23 23 23 23 23 22 22 23 25
21 22 21 21 22 22 24 24 24 24 24 25 24 24 23 23 21 21 20 17 16 13 13 14 15 15 15 17 17 16 16 17 18 20 21 21 22 22 22 24 24 23 23 23 23 22 22 23 24
20 20 20 20 20 20 21 22 22 23 23 24 23 23 20 19 20 19 18 16 15 14 13 13 13 14 15 16 17 16 17 17 19 20 21 22 23 23 23 23 24 23 23 23 22 23 24 23 24
18 17 17 17 19 18 18 18 19 21 21 21 21 21 21 19 18 18 17 16 14 14 13 14 15 15 16 16 17 17 18 19 20 21 22 22 23 24 24 24 25 24 23 23 23 23 24 24 24
16 14 15 16 15 15 15 15 16 17 18 18 19 20 19 17 16 16 17 14 14 14 14 15 14 16 17 17 18 19 20 21 21 22 23 23 24 24 24 25 25 25 24 24 24 24 24 25 25
14 13 12 12 12 12 13 14 14 15 15 15 17 18 18 16 15 16 16 15 14 13 14 14 15 16 17 18 19 20 21 22 23 23 23 24 25 25 25 25 25 25 25 25 25 25 26 26 25
14 12 11 10 10 11 13 14 14 14 15 16 17 16 16 16 16 15 14 13 14 14 14 15 16 17 18 19 20 21 22 23 24 24 25 25 26 26 26 26 26 26 26 26 26 26 26 26 26
13 12 10 10 10 12 13 15 16 16 16 16 16 16 15 16 15 14 15 15 14 15 16 16 17 18 20 21 21 22 23 24 25 26 26 26 27 27 27 27 27 27 27 27 27 26 26 26 26
12 12 11 10 11 14 15 16 16 17 17 17 18 17 17 15 15 15 15 15 15 16 16 18 19 20 21 22 23 24 25 25 26 26 26 27 27 27 27 27 28 28 28 28 28 27 26 26 26
14 14 13 13 14 16 16 17 17 17 17 18 19 18 18 15 15 15 14 15 16 17 18 19 20 21 22 23 24 25 26 26 26 27 26 26 26 27 27 27 27 27 28 28 28 27 27 26 27
14 16 15 15 16 17 18 19 18 17 18 19 19 18 16 15 14 15 16 16 16 18 19 20 21 22 23 24 25 26 26 27 27 27 27 26 26 26 26 26 27 27 27 27 27 26 27 27 27
16 17 16 16 17 19 18 20 20 19 19 19 19 18 15 16 16 17 17 16 17 18 19 21 22 23 24 25 25 26 26 27 27 27 27 26 26 26 26 26 26 26 26 26 26 26 26 26 26
17 16 16 17 19 19 18 20 21 19 20 21 20 19 18 18 17 17 18 18 19 20 21 22 23 24 25 25 25 26 26 26 26 26 26 26 26 26 26 25 26 25 25 25 26 25 26 26 26
17 17 17 16 17 17 17 19 19 20 19 19 20 21 21 20 19 19 19 19 20 21 22 23 24 24 24 25 25 25 26 26 26 26 26 26 26 26 26 26 26 25 25 25 25 25 26 26 26
18 19 18 18 17 18 17 18 19 19 18 19 19 20 21 20 21 20 20 20 21 22 22 23 23 24 25 25 25 26 25 25 25 25 26 26 26 26 27 26 26 26 25 25 25 25 24 25 25
17 17 17 17 16 16 17 16 17 17 19 19 19 21 21 20 20 20 21 21 21 22 22 24 24 25 25 25 25 25 25 25 25 25 26 25 26 27 27 27 26 26 25 24 24 24 24 24 24
15 17 17 17 17 17 18 17 17 18 19 20 21 22 22 20 19 19 19 20 21 22 23 24 25 25 25 25 25 25 25 25 25 24 25 25 26 26 26 26 26 25 24 24 24 24 24 24 24
15 16 16 17 17 18 18 19 19 21 20 21 21 18 18 18 19 19 19 20 21 22 23 24 24 24 24 24 24 24 24 24 24 24 24 24 24 24 24 23 24 24 23 23 23 24 23 23 23
Wind_Direction
244 241 239 235 228 221 219 220 226 231 237 244 254 267 277 284 287 284 280 276 266 259 253 249 241 236 234 232 233 235 238 240 243 247 252 258 263 268 274 278 282 286 288 292 297 303 310 314 316
244 240 235 227 217 212 214 219 226 235 241 246 255 266 276 280 283 279 273 268 259 258 259 253 246 243 240 238 237 239 242 243 245 248 252 256 260 264 270 274 278 282 284 288 292 296 302 307 310
241 238 231 219 204 208 213 218 226 237 246 251 257 266 274 277 280 279 270 264 255 257 258 254 248 246 242 240 240 241 243 246 247 249 251 255 258 262 267 272 275 278 281 284 288 292 296 299 302
238 235 226 212 198 203 214 220 224 240 247 255 261 268 274 279 279 277 271 262 256 255 252 249 246 246 244 242 242 242 243 246 248 250 252 254 257 261 265 269 272 274 276 279 282 287 290 293 295
234 229 218 203 196 202 214 222 224 235 250 260 265 271 276 280 279 273 266 259 253 250 246 246 242 242 242 242 243 243 244 246 248 249 251 255 259 262 265 268 270 271 272 274 277 281 284 286 288
230 224 209 197 197 205 213 221 227 239 253 262 268 274 279 280 279 272 263 257 249 247 245 242 242 242 243 244 245 246 248 250 251 251 253 256 258 261 264 266 268 269 269 270 272 276 278 279 280
225 215 205 199 200 206 215 226 238 247 258 264 270 276 280 280 275 271 264 256 246 241 238 237 238 242 244 245 247 248 251 253 253 253 254 257 259 260 263 265 266 268 268 268 269 270 273 274 274
222 208 203 200 203 209 217 231 245 254 261 268 273 276 277 275 272 270 265 255 245 239 241 236 236 238 241 244 245 247 251 253 254 255 256 259 261 261 262 263 265 267 268 267 268 268 268 271 271
215 206 203 203 208 212 214 230 246 256 263 269 271 271 272 272 271 268 264 256 250 245 245 237 237 238 241 243 244 247 252 255 255 256 258 262 263 263 265 265 267 268 267 267 267 266 265 267 269
208 204 206 210 213 215 218 230 244 255 262 266 265 266 268 270 269 268 265 254 247 247 246 237 236 239 243 245 245 246 251 254 256 257 259 263 265 265 267 267 268 270 268 268 267 266 264 265 265
206 205 209 212 214 217 225 235 247 257 262 265 265 265 266 268 268 268 262 248 240 240 245 245 239 240 243 245 248 248 252 255 257 259 259 262 264 266 270 269 268 268 269 267 265 265 265 264 263
208 207 211 214 217 218 227 238 247 255 260 263 264 265 266 268 269 270 263 247 246 247 246 249 244 244 245 248 250 249 253 256 257 260 263 266 265 268 268 269 269 268 270 268 266 265 266 265 263
210 210 214 218 222 221 229 238 247 252 257 260 264 267 270 268 269 269 262 256 249 254 249 250 250 252 248 248 251 253 256 261 261 263 264 265 265 265 266 270 271 271 272 270 268 267 266 265 264
213 214 216 220 224 227 230 238 245 251 255 261 266 272 275 272 272 271 269 273 268 262 259 263 261 253 251 252 252 252 257 260 262 266 267 266 265 264 265 267 268 269 272 271 267 266 266 265 263
216 215 218 221 225 229 234 239 244 250 255 261 267 273 277 276 274 272 274 277 269 268 269 271 268 259 259 258 258 260 261 262 262 264 266 268 268 268 268 267 266 267 268 269 269 268 266 267 266
216 215 218 222 227 230 234 239 241 249 256 263 272 276 278 281 283 280 276 275 266 267 275 273 269 268 267 269 267 265 265 264 264 265 267 268 269 268 268 268 268 267 266 267 267 268 268 268 267
212 212 217 221 226 235 240 243 246 254 262 269 274 279 280 284 285 282 278 272 266 268 272 271 270 274 273 274 275 273 271 269 267 268 268 269 270 270 269 268 269 269 268 268 268 268 268 268 267
202 204 211 215 225 243 256 259 258 263 266 272 274 276 279 284 283 281 277 274 270 265 265 267 270 273 275 277 277 276 275 273 271 271 271 271 272 272 272 270 270 271 271 269 268 270 269 268 267
201 206 211 212 223 238 258 265 262 264 274 279 274 274 278 281 287 285 280 278 272 269 270 271 270 274 278 278 278 279 278 276 274 272 273 274 273 272 272 271 270 271 271 270 270 271 269 268 265
202 204 210 219 230 243 259 266 269 271 276 277 276 276 281 286 285 284 284 282 275 272 272 274 277 279 280 280 280 279 279 279 278 277 276 276 276 274 274 273 272 271 270 270 269 270 268 267 264
204 205 211 224 232 238 248 259 267 271 275 276 279 279 282 286 283 278 278 278 275 274 274 277 280 282 283 282 281 281 281 280 280 278 277 276 275 275 275 275 274 272 270 269 269 268 268 266 264
209 211 216 221 229 236 244 259 267 272 274 276 278 277 280 285 287 281 276 274 274 275 278 281 283 284 283 282 282 282 282 282 280 279 277 276 275 274 275 275 275 272 271 270 269 267 267 266 265
210 213 221 225 232 244 253 262 268 274 276 279 282 279 279 284 285 283 281 278 277 279 281 283 284 285 284 283 282 283 283 283 282 279 278 276 276 275 275 274 275 274 272 271 270 269 266 264 265
208 213 217 224 233 241 251 261 269 277 278 278 283 286 284 282 282 282 279 279 281 284 286 287 287 287 287 286 285 284 284 284 283 281 279 277 276 275 274 272 274 274 274 273 272 269 266 264 265
210 215 219 225 234 242 252 261 267 273 282 279 281 283 286 287 284 282 283 284 284 286 287 288 289 288 289 288 286 286 285 285 283 281 280 278 276 275 273 271 272 274 274 274 273 270 267 266 265
213 222 229 238 243 248 257 266 273 281 285 285 282 286 290 286 285 289 287 286 285 286 287 288 289 289 290 289 288 287 286 285 282 280 279 278 277 275 272 272 273 273 274 273 272 270 267 265 264
216 224 232 243 249 255 262 273 281 285 286 288 284 289 294 290 288 287 288 288 289 290 290 290 291 291 291 290 289 287 285 284 282 280 279 277 275 274 272 272 272 273 273 272 272 270 267 266 265
222 227 233 242 254 261 266 279 291 292 289 292 289 294 295 291 286 285 289 289 292 292 291 292 293 291 290 290 290 288 285 284 283 281 279 277 275 274 273 272 272 272 271 270 270 270 267 266 266
223 229 239 248 255 264 273 284 294 300 300 297 297 296 297 293 289 287 288 289 291 292 292 292 291 290 290 290 290 287 283 282 282 281 279 278 276 274 273 271 271 270 268 267 267 268 268 267 266
227 233 240 250 257 268 279 286 293 298 301 303 302 302 299 297 295 293 291 292 293 294 293 292 292 291 291 290 289 287 284 283 283 281 279 277 276 275 274 272 270 269 269 267 266 266 266 267 266